Tracking 19170 objects as of 23-May-2018
HD Live streaming from Space Station
objects crossing your sky now

CZ-3B DEB

Track CZ-3B DEB now!


NORAD ID: 39333
Int'l Code: 2010-042E
Perigee: 543.1 km
Apogee: 41,677.2 km
Inclination: 23.5 °
Period: 755.6 minutes
Semi major axis: 27481 km
RCS: 0.1003 m2 (medium)
Launch date: September 4, 2010
Source: People's Republic of China (PRC)
Launch site: Xichang Space Center, China (XSC)

Note: This is SATELLITE DEBRIS
aabbcc
Your satellite tracking list
Your tracking list is empty




NASA's NSSDC Master Catalog

Two Line Element Set (TLE):
1 39333U 10042E   18142.25045383 -.00000088 +00000-0 +44393-3 0  9997
2 39333 023.4550 139.4564 7484062 125.8246 357.8114 01.90568065033840
Source of the keplerian elements: AFSPC